ABS-7

Last updated on Wed Jan 04 2023 00:02:44 GMT+0000 (Coordinated Universal Time)

1 25894U 99046A 23003.16987083 .00000152 00000+0 00000+0 0 9992 2 25894 3.2665 85.5196 0000878 192.4780 281.6336 0.99963380 84480
UTC large
Height (km)
Speed (km/s)
/
Latitude / Longitude
Inclination (degrees)
Orbital Period (minutes)
Azimuth
Elevation
Range (km)
Doppler Factor

Next 0 passes for location: London (51.5072 / 0.1276)

Sorry there are no passes over London.